This is the latest recevied weather packets stored in our database for station/object K0SDS. If no packets are shown the sender has not sent any weather packets the latest 10 day(s).
| Time | Temp. | Humidity | Pressure | Rain* | Wind** | Luminosity | Snow |
|---|---|---|---|---|---|---|---|
| 1778179323 | 18.89° C | 53% | 1012.9 hPa | 0 mm | - | 797 W/m² | - |
| 1778179014 | 18.89° C | 49% | 1012.8 hPa | 0 mm | - | 654 W/m² | - |
| 1778178711 | 18.89° C | 52% | 1012.8 hPa | 0 mm | - | 650 W/m² | - |
| 1778178409 | 18.89° C | 49% | 1012.9 hPa | 0 mm | - | 189 W/m² | - |
| 1778178104 | 18.89° C | 49% | 1013.1 hPa | 0 mm | - | 686 W/m² | - |
| 1778177801 | 18.33° C | 50% | 1013.4 hPa | 0 mm | - | 694 W/m² | - |
| 1778177497 | 18.33° C | 53% | 1013.4 hPa | 0 mm | - | 665 W/m² | - |
| 1778177193 | 18.89° C | 50% | 1013.5 hPa | 0 mm | - | 696 W/m² | - |
| 1778176891 | 17.78° C | 55% | 1013.3 hPa | 0 mm | - | 776 W/m² | - |
| 1778176586 | 17.78° C | 53% | 1013.6 hPa | 0 mm | - | 889 W/m² | - |
| 1778176284 | 18.33° C | 51% | 1013.6 hPa | 0 mm | - | 213 W/m² | - |
| 1778175981 | 18.33° C | 53% | 1013.7 hPa | 0 mm | - | 758 W/m² | - |
| 1778175679 | 17.78° C | 55% | 1013.9 hPa | 0 mm | - | 778 W/m² | - |
| 1778175376 | 17.78° C | 52% | 1013.9 hPa | 0 mm | - | 281 W/m² | - |
| 1778175073 | 17.78° C | 53% | 1014.3 hPa | 0 mm | - | 802 W/m² | - |
| 1778174768 | 17.78° C | 53% | 1014.1 hPa | 0 mm | - | 709 W/m² | - |
| 1778174466 | 17.78° C | 54% | 1014.4 hPa | 0 mm | - | 747 W/m² | - |
| 1778174161 | 17.78° C | 52% | 1014.3 hPa | 0 mm | - | 814 W/m² | - |
| 1778173858 | 17.78° C | 53% | 1014.3 hPa | 0 mm | - | 435 W/m² | - |
| 1778173555 | 17.22° C | 54% | 1014.5 hPa | 0 mm | - | 797 W/m² | - |
| 1778173252 | 17.78° C | 53% | 1014.6 hPa | 0 mm | - | 781 W/m² | - |
| 1778172947 | 16.67° C | 54% | 1014.4 hPa | 0 mm | - | 846 W/m² | - |
| 1778172644 | 17.22° C | 53% | 1014.5 hPa | 0 mm | - | 809 W/m² | - |
| 1778172340 | 17.78° C | 53% | 1014.7 hPa | 0 mm | - | 845 W/m² | - |
| 1778172038 | 17.22° C | 55% | 1014.9 hPa | 0 mm | - | 902 W/m² | - |
* Rain latest hour (hover to see other rain measurements)
** Current wind speed in m/s (hover to see current wind gust speed)